QPF
0.08 0.07 0.05 0.04 0.05 0.03 0.03 0.04 0.06 0.05 0.03 0.03 0.03 0.01 0.01 0.01 0.01 0.00 0.01 0.01 0.01 0.01 0.01 0.01 0.01 0.01 0.02 0.03 0.03 0.04 0.05 0.06 0.06 0.06 0.03 0.02 0.03 0.01
0.07 0.07 0.05 0.03 0.03 0.02 0.02 0.03 0.04 0.04 0.04 0.02 0.02 0.01 0.00 0.00 0.00 0.00 0.01 0.01 0.00 0.00 0.00 0.01 0.01 0.01 0.01 0.02 0.03 0.03 0.03 0.04 0.04 0.04 0.04 0.02 0.02 0.02
0.05 0.05 0.04 0.03 0.03 0.02 0.01 0.02 0.02 0.03 0.03 0.02 0.01 0.01 0.01 0.01 0.00 0.00 0.00 0.00 0.00 0.01 0.01 0.01 0.01 0.01 0.02 0.02 0.03 0.03 0.03 0.03 0.03 0.03 0.03 0.02 0.02 0.03
0.05 0.04 0.03 0.02 0.03 0.02 0.02 0.02 0.02 0.02 0.02 0.02 0.01 0.01 0.01 0.01 0.01 0.00 0.00 0.00 0.01 0.01 0.00 0.00 0.01 0.01 0.01 0.02 0.03 0.04 0.04 0.04 0.03 0.03 0.03 0.03 0.04 0.06
0.04 0.03 0.02 0.02 0.02 0.02 0.02 0.02 0.01 0.01 0.02 0.03 0.02 0.02 0.01 0.01 0.01 0.01 0.01 0.01 0.01 0.00 0.00 0.00 0.00 0.00 0.01 0.03 0.04 0.05 0.07 0.06 0.04 0.04 0.05 0.06 0.07 0.06
0.03 0.02 0.01 0.01 0.02 0.03 0.02 0.03 0.03 0.02 0.03 0.02 0.02 0.01 0.01 0.01 0.02 0.02 0.03 0.02 0.01 0.01 0.01 0.00 0.00 0.00 0.01 0.02 0.04 0.06 0.07 0.07 0.06 0.05 0.05 0.06 0.05 0.04
0.03 0.02 0.02 0.01 0.02 0.03 0.02 0.03 0.04 0.04 0.03 0.03 0.02 0.02 0.02 0.02 0.02 0.02 0.03 0.02 0.01 0.01 0.01 0.02 0.02 0.02 0.02 0.02 0.02 0.03 0.06 0.07 0.07 0.06 0.05 0.06 0.06 0.04
0.02 0.03 0.04 0.03 0.02 0.02 0.02 0.02 0.03 0.03 0.04 0.04 0.03 0.02 0.03 0.02 0.03 0.02 0.02 0.02 0.01 0.01 0.01 0.02 0.03 0.04 0.04 0.04 0.02 0.02 0.02 0.04 0.05 0.06 0.06 0.06 0.07 0.06
0.03 0.04 0.03 0.02 0.02 0.01 0.02 0.02 0.02 0.02 0.02 0.03 0.03 0.02 0.03 0.03 0.02 0.02 0.01 0.01 0.01 0.01 0.01 0.01 0.02 0.03 0.03 0.04 0.04 0.03 0.02 0.03 0.04 0.05 0.06 0.08 0.07 0.05
0.03 0.04 0.04 0.02 0.01 0.01 0.02 0.02 0.01 0.01 0.01 0.01 0.01 0.02 0.03 0.04 0.03 0.02 0.02 0.02 0.01 0.01 0.01 0.02 0.02 0.02 0.02 0.04 0.05 0.03 0.03 0.03 0.04 0.06 0.07 0.07 0.07 0.05
0.04 0.04 0.04 0.03 0.02 0.02 0.03 0.03 0.03 0.02 0.01 0.01 0.01 0.01 0.02 0.02 0.02 0.03 0.03 0.02 0.01 0.01 0.01 0.01 0.02 0.02 0.03 0.04 0.04 0.03 0.02 0.02 0.02 0.02 0.04 0.05 0.06 0.06
0.06 0.05 0.03 0.02 0.03 0.03 0.03 0.03 0.03 0.03 0.02 0.02 0.01 0.01 0.01 0.01 0.01 0.02 0.03 0.03 0.02 0.01 0.02 0.02 0.03 0.03 0.03 0.03 0.03 0.03 0.02 0.01 0.01 0.01 0.01 0.03 0.04 0.04
0.05 0.05 0.04 0.03 0.02 0.03 0.02 0.02 0.03 0.03 0.03 0.03 0.03 0.03 0.02 0.01 0.01 0.01 0.02 0.03 0.03 0.02 0.03 0.02 0.02 0.03 0.04 0.04 0.03 0.02 0.02 0.01 0.01 0.01 0.01 0.01 0.02 0.03
0.04 0.05 0.05 0.04 0.03 0.03 0.01 0.01 0.02 0.03 0.04 0.03 0.03 0.02 0.02 0.01 0.01 0.02 0.03 0.04 0.03 0.03 0.02 0.02 0.02 0.03 0.04 0.05 0.05 0.04 0.03 0.02 0.01 0.01 0.01 0.01 0.02 0.02
0.03 0.04 0.06 0.05 0.04 0.02 0.01 0.02 0.02 0.02 0.02 0.03 0.04 0.04 0.03 0.02 0.03 0.03 0.03 0.04 0.04 0.03 0.02 0.03 0.02 0.03 0.04 0.05 0.05 0.05 0.04 0.03 0.02 0.01 0.01 0.02 0.02 0.02
0.02 0.03 0.04 0.04 0.04 0.03 0.02 0.02 0.02 0.02 0.01 0.01 0.02 0.03 0.03 0.04 0.04 0.03 0.04 0.03 0.04 0.04 0.03 0.03 0.03 0.03 0.03 0.04 0.04 0.05 0.05 0.03 0.02 0.02 0.02 0.02 0.02 0.02
0.03 0.02 0.02 0.02 0.02 0.02 0.02 0.02 0.02 0.02 0.02 0.02 0.02 0.03 0.04 0.04 0.05 0.06 0.07 0.06 0.05 0.04 0.04 0.03 0.03 0.03 0.03 0.04 0.04 0.05 0.07 0.06 0.04 0.03 0.03 0.02 0.03 0.04
0.02 0.02 0.02 0.02 0.02 0.02 0.01 0.02 0.02 0.01 0.02 0.02 0.02 0.02 0.03 0.04 0.04 0.05 0.07 0.08 0.08 0.07 0.06 0.06 0.05 0.05 0.04 0.03 0.03 0.05 0.07 0.08 0.06 0.05 0.03 0.03 0.03 0.03
0.03 0.02 0.01 0.01 0.02 0.01 0.01 0.01 0.01 0.01 0.02 0.02 0.02 0.02 0.02 0.03 0.04 0.04 0.04 0.05 0.06 0.07 0.07 0.07 0.07 0.06 0.05 0.03 0.03 0.04 0.06 0.07 0.07 0.05 0.04 0.03 0.02 0.02
0.02 0.03 0.02 0.02 0.02 0.02 0.02 0.02 0.01 0.02 0.01 0.02 0.02 0.03 0.03 0.03 0.04 0.05 0.04 0.04 0.04 0.04 0.05 0.05 0.05 0.05 0.05 0.05 0.06 0.06 0.05 0.07 0.08 0.07 0.05 0.04 0.03 0.03
0.02 0.02 0.02 0.02 0.02 0.03 0.03 0.02 0.01 0.01 0.01 0.01 0.02 0.03 0.03 0.03 0.04 0.05 0.05 0.05 0.04 0.04 0.05 0.05 0.05 0.05 0.06 0.07 0.07 0.06 0.05 0.05 0.07 0.08 0.07 0.06 0.05 0.05
0.03 0.02 0.02 0.02 0.02 0.02 0.02 0.01 0.02 0.01 0.01 0.01 0.01 0.02 0.03 0.03 0.04 0.05 0.05 0.05 0.04 0.04 0.04 0.04 0.05 0.05 0.05 0.05 0.06 0.06 0.06 0.05 0.06 0.07 0.07 0.06 0.04 0.04
0.04 0.03 0.03 0.02 0.02 0.02 0.01 0.01 0.02 0.02 0.02 0.02 0.02 0.02 0.04 0.04 0.04 0.04 0.05 0.06 0.05 0.05 0.06 0.06 0.07 0.07 0.06 0.05 0.05 0.05 0.05 0.06 0.06 0.07 0.05 0.04 0.03 0.02
MSLP
1014.04 1014.71 1015.32 1015.87 1016.34 1016.77 1017.16 1017.56 1017.97 1018.42 1018.91 1019.43 1019.98 1020.53 1021.06 1021.57 1022.03 1022.44 1022.80 1023.12 1023.38 1023.60 1023.78 1023.90 1023.97 1023.98 1023.94 1023.84 1023.71 1023.54 1023.37 1023.20 1023.04 1022.90 1022.79 1022.71 1022.64 1022.59
1014.44 1014.96 1015.44 1015.84 1016.20 1016.52 1016.84 1017.19 1017.58 1018.03 1018.54 1019.08 1019.66 1020.23 1020.78 1021.28 1021.73 1022.12 1022.46 1022.74 1022.97 1023.17 1023.33 1023.46 1023.55 1023.60 1023.60 1023.56 1023.48 1023.37 1023.24 1023.11 1022.98 1022.87 1022.77 1022.69 1022.63 1022.59
1014.93 1015.33 1015.67 1015.95 1016.19 1016.42 1016.66 1016.95 1017.30 1017.73 1018.22 1018.77 1019.35 1019.92 1020.46 1020.95 1021.38 1021.74 1022.04 1022.28 1022.48 1022.65 1022.79 1022.92 1023.02 1023.09 1023.14 1023.15 1023.14 1023.09 1023.03 1022.95 1022.87 1022.79 1022.72 1022.66 1022.62 1022.59
1015.43 1015.74 1015.97 1016.15 1016.30 1016.43 1016.60 1016.83 1017.13 1017.52 1017.99 1018.52 1019.08 1019.63 1020.15 1020.62 1021.01 1021.34 1021.59 1021.79 1021.95 1022.08 1022.20 1022.31 1022.41 1022.51 1022.59 1022.65 1022.70 1022.72 1022.72 1022.71 1022.69 1022.66 1022.63 1022.60 1022.58 1022.56
1015.84 1016.08 1016.26 1016.37 1016.44 1016.52 1016.63 1016.80 1017.06 1017.41 1017.83 1018.32 1018.84 1019.37 1019.86 1020.29 1020.65 1020.94 1021.16 1021.32 1021.44 1021.53 1021.61 1021.69 1021.78 1021.87 1021.97 1022.07 1022.16 1022.24 1022.31 1022.36 1022.41 1022.44 1022.46 1022.48 1022.48 1022.49
1016.10 1016.31 1016.44 1016.52 1016.56 1016.60 1016.68 1016.81 1017.03 1017.33 1017.72 1018.16 1018.64 1019.12 1019.58 1019.98 1020.31 1020.57 1020.75 1020.88 1020.96 1021.01 1021.05 1021.09 1021.15 1021.22 1021.31 1021.42 1021.53 1021.65 1021.77 1021.89 1022.00 1022.09 1022.17 1022.24 1022.30 1022.35
1016.17 1016.36 1016.49 1016.56 1016.59 1016.63 1016.68 1016.80 1016.99 1017.25 1017.60 1018.00 1018.44 1018.88 1019.30 1019.67 1019.98 1020.21 1020.37 1020.47 1020.51 1020.52 1020.52 1020.52 1020.53 1020.56 1020.63 1020.72 1020.83 1020.97 1021.13 1021.29 1021.45 1021.61 1021.75 1021.88 1021.99 1022.08
1016.07 1016.26 1016.39 1016.47 1016.52 1016.56 1016.62 1016.73 1016.90 1017.14 1017.45 1017.82 1018.21 1018.62 1019.01 1019.35 1019.64 1019.86 1020.00 1020.08 1020.10 1020.08 1020.03 1019.98 1019.94 1019.92 1019.94 1020.00 1020.10 1020.23 1020.40 1020.59 1020.80 1021.00 1021.20 1021.38 1021.55 1021.68
1015.88 1016.06 1016.19 1016.28 1016.35 1016.40 1016.48 1016.59 1016.76 1016.98 1017.27 1017.60 1017.96 1018.34 1018.69 1019.02 1019.29 1019.49 1019.62 1019.69 1019.69 1019.64 1019.57 1019.48 1019.39 1019.32 1019.29 1019.30 1019.37 1019.49 1019.65 1019.85 1020.08 1020.32 1020.56 1020.79 1020.99 1021.17
1015.64 1015.81 1015.94 1016.04 1016.12 1016.20 1016.29 1016.41 1016.58 1016.79 1017.06 1017.36 1017.69 1018.03 1018.36 1018.66 1018.91 1019.10 1019.23 1019.29 1019.28 1019.22 1019.12 1019.01 1018.88 1018.78 1018.70 1018.68 1018.71 1018.80 1018.95 1019.15 1019.38 1019.63 1019.89 1020.14 1020.37 1020.57
1015.44 1015.59 1015.71 1015.80 1015.89 1015.98 1016.08 1016.21 1016.38 1016.59 1016.84 1017.12 1017.42 1017.72 1018.02 1018.29 1018.52 1018.69 1018.81 1018.87 1018.86 1018.81 1018.71 1018.58 1018.45 1018.32 1018.23 1018.17 1018.18 1018.24 1018.36 1018.54 1018.75 1019.00 1019.24 1019.49 1019.71 1019.90
1015.27 1015.39 1015.49 1015.58 1015.67 1015.76 1015.88 1016.02 1016.19 1016.39 1016.63 1016.88 1017.15 1017.42 1017.68 1017.92 1018.12 1018.28 1018.38 1018.44 1018.44 1018.40 1018.32 1018.20 1018.08 1017.96 1017.87 1017.80 1017.79 1017.83 1017.92 1018.06 1018.24 1018.45 1018.66 1018.87 1019.06 1019.22
1015.08 1015.19 1015.27 1015.35 1015.44 1015.54 1015.66 1015.81 1015.99 1016.19 1016.41 1016.65 1016.89 1017.12 1017.34 1017.54 1017.71 1017.85 1017.95 1018.01 1018.03 1018.00 1017.95 1017.88 1017.78 1017.69 1017.61 1017.56 1017.54 1017.56 1017.62 1017.71 1017.84 1017.99 1018.14 1018.28 1018.41 1018.52
1014.82 1014.91 1014.99 1015.07 1015.16 1015.27 1015.40 1015.56 1015.75 1015.95 1016.16 1016.39 1016.60 1016.80 1016.99 1017.16 1017.30 1017.42 1017.51 1017.58 1017.61 1017.62 1017.61 1017.58 1017.53 1017.48 1017.43 1017.39 1017.37 1017.37 1017.39 1017.44 1017.50 1017.57 1017.64 1017.71 1017.76 1017.79
1014.39 1014.49 1014.58 1014.66 1014.76 1014.88 1015.03 1015.21 1015.41 1015.62 1015.84 1016.05 1016.26 1016.44 1016.61 1016.75 1016.88 1016.98 1017.07 1017.15 1017.20 1017.25 1017.28 1017.29 1017.29 1017.28 1017.26 1017.24 1017.21 1017.19 1017.17 1017.16 1017.14 1017.13 1017.12 1017.10 1017.07 1017.04
1013.76 1013.88 1013.98 1014.09 1014.20 1014.34 1014.51 1014.71 1014.92 1015.15 1015.38 1015.60 1015.81 1015.99 1016.15 1016.29 1016.41 1016.52 1016.61 1016.70 1016.78 1016.85 1016.92 1016.97 1017.00 1017.02 1017.02 1017.00 1016.97 1016.92 1016.86 1016.78 1016.70 1016.62 1016.52 1016.43 1016.34 1016.25
1012.93 1013.08 1013.21 1013.33 1013.47 1013.63 1013.82 1014.03 1014.27 1014.52 1014.76 1015.00 1015.22 1015.41 1015.58 1015.73 1015.86 1015.98 1016.09 1016.20 1016.30 1016.40 1016.49 1016.57 1016.62 1016.66 1016.66 1016.63 1016.58 1016.49 1016.39 1016.26 1016.12 1015.98 1015.84 1015.69 1015.56 1015.44
1011.99 1012.16 1012.31 1012.45 1012.60 1012.78 1012.98 1013.20 1013.45 1013.71 1013.97 1014.23 1014.47 1014.68 1014.87 1015.05 1015.20 1015.35 1015.49 1015.62 1015.74 1015.86 1015.96 1016.05 1016.11 1016.13 1016.12 1016.08 1015.99 1015.88 1015.74 1015.58 1015.41 1015.24 1015.07 1014.92 1014.78 1014.67
1011.06 1011.24 1011.40 1011.55 1011.70 1011.87 1012.07 1012.29 1012.54 1012.79 1013.05 1013.31 1013.56 1013.80 1014.01 1014.21 1014.40 1014.58 1014.75 1014.91 1015.06 1015.19 1015.30 1015.39 1015.44 1015.45 1015.42 1015.35 1015.24 1015.10 1014.94 1014.77 1014.60 1014.43 1014.29 1014.16 1014.07 1014.00
1010.28 1010.45 1010.60 1010.73 1010.87 1011.02 1011.19 1011.38 1011.60 1011.82 1012.06 1012.30 1012.54 1012.78 1013.01 1013.23 1013.45 1013.66 1013.86 1014.05 1014.22 1014.37 1014.49 1014.58 1014.62 1014.62 1014.57 1014.48 1014.36 1014.22 1014.07 1013.92 1013.78 1013.66 1013.57 1013.51 1013.48 1013.48
1009.75 1009.89 1010.01 1010.12 1010.22 1010.32 1010.44 1010.57 1010.72 1010.89 1011.07 1011.26 1011.47 1011.68 1011.90 1012.12 1012.36 1012.59 1012.81 1013.03 1013.23 1013.40 1013.54 1013.63 1013.68 1013.68 1013.64 1013.56 1013.45 1013.33 1013.22 1013.12 1013.04 1012.99 1012.98 1013.01 1013.06 1013.14
1009.50 1009.61 1009.69 1009.75 1009.80 1009.84 1009.89 1009.94 1010.00 1010.08 1010.16 1010.27 1010.40 1010.55 1010.73 1010.93 1011.15 1011.39 1011.63 1011.87 1012.10 1012.30 1012.47 1012.59 1012.66 1012.69 1012.68 1012.63 1012.57 1012.51 1012.46 1012.43 1012.44 1012.49 1012.57 1012.69 1012.82 1012.97
1009.52 1009.58 1009.62 1009.63 1009.63 1009.60 1009.57 1009.52 1009.47 1009.43 1009.40 1009.39 1009.42 1009.47 1009.57 1009.72 1009.90 1010.12 1010.36 1010.62 1010.88 1011.12 1011.32 1011.50 1011.62 1011.71 1011.76 1011.78 1011.80 1011.81 1011.85 1011.92 1012.02 1012.16 1012.33 1012.52 1012.72 1012.90
Thickness
5703 5702 5702 5703 5703 5703 5702 5701 5697 5694 5696 5698 5701 5702 5702 5700 5697 5697 5697 5695 5694 5693 5692 5692 5692 5692 5692 5692 5692 5691 5691 5690 5689 5688 5687 5686 5685 5684
5698 5698 5697 5699 5699 5700 5700 5699 5698 5695 5693 5698 5698 5700 5698 5699 5695 5696 5696 5693 5692 5691 5690 5690 5690 5690 5689 5689 5689 5688 5688 5687 5686 5685 5684 5683 5682 5681
5695 5695 5694 5694 5695 5696 5697 5696 5695 5694 5690 5693 5695 5695 5692 5692 5692 5693 5694 5693 5693 5690 5689 5688 5687 5687 5687 5686 5686 5685 5685 5684 5683 5682 5681 5680 5679 5678
5692 5691 5691 5691 5690 5691 5691 5692 5691 5690 5688 5686 5689 5690 5688 5688 5688 5688 5691 5692 5691 5688 5687 5685 5685 5685 5684 5684 5683 5682 5681 5681 5680 5679 5679 5678 5677 5676
5687 5686 5686 5686 5685 5686 5686 5687 5688 5688 5687 5684 5684 5685 5685 5685 5684 5685 5687 5687 5689 5687 5685 5683 5683 5682 5681 5681 5680 5679 5678 5678 5677 5676 5675 5675 5674 5673
5683 5682 5682 5682 5681 5681 5681 5681 5682 5682 5681 5681 5681 5681 5680 5681 5680 5681 5682 5683 5684 5686 5684 5682 5680 5679 5679 5678 5677 5676 5675 5674 5674 5673 5672 5671 5670 5670
5677 5677 5677 5676 5676 5675 5677 5677 5676 5676 5676 5676 5675 5676 5676 5674 5676 5678 5678 5679 5680 5681 5681 5681 5680 5679 5678 5676 5675 5674 5673 5672 5671 5670 5669 5668 5667 5666
5671 5672 5672 5671 5669 5668 5668 5668 5668 5669 5670 5669 5671 5670 5669 5671 5671 5672 5673 5673 5673 5677 5675 5676 5678 5678 5677 5676 5674 5672 5670 5668 5667 5666 5665 5664 5663 5663
5666 5666 5668 5669 5667 5666 5663 5661 5661 5661 5661 5663 5665 5665 5665 5666 5665 5666 5665 5666 5667 5671 5671 5671 5674 5673 5674 5673 5670 5668 5666 5665 5664 5663 5662 5661 5660 5659
5661 5661 5661 5662 5662 5661 5661 5660 5660 5660 5659 5659 5659 5660 5661 5660 5660 5660 5660 5660 5662 5664 5666 5665 5669 5669 5671 5669 5666 5664 5662 5661 5660 5659 5658 5657 5656 5655
5657 5657 5657 5656 5654 5653 5653 5654 5654 5655 5654 5653 5653 5652 5651 5651 5652 5654 5656 5657 5658 5661 5662 5660 5662 5663 5665 5665 5663 5660 5658 5657 5656 5655 5653 5652 5652 5651
5652 5653 5651 5650 5649 5647 5648 5649 5649 5650 5651 5651 5648 5647 5647 5647 5646 5647 5651 5652 5653 5654 5657 5654 5656 5656 5656 5660 5660 5657 5654 5652 5651 5650 5649 5647 5646 5646
5648 5649 5649 5645 5643 5641 5641 5643 5644 5644 5645 5645 5645 5646 5646 5646 5645 5644 5645 5646 5647 5647 5650 5647 5648 5649 5649 5652 5653 5654 5652 5650 5647 5646 5644 5643 5641 5640
5643 5645 5644 5640 5638 5636 5636 5636 5636 5635 5639 5640 5641 5642 5643 5643 5643 5641 5640 5639 5639 5640 5641 5640 5640 5640 5641 5643 5645 5647 5646 5645 5643 5642 5641 5639 5636 5635
5638 5636 5635 5633 5632 5632 5630 5630 5630 5633 5635 5637 5638 5639 5640 5639 5638 5635 5635 5634 5633 5634 5635 5633 5633 5635 5634 5635 5637 5638 5638 5638 5637 5636 5635 5634 5633 5632
5630 5629 5627 5627 5627 5628 5628 5627 5628 5632 5633 5633 5635 5635 5635 5634 5632 5632 5631 5630 5629 5630 5630 5628 5627 5626 5628 5629 5630 5631 5631 5630 5631 5629 5628 5627 5628 5629
5626 5626 5627 5629 5629 5629 5629 5630 5629 5628 5627 5629 5629 5629 5629 5628 5627 5627 5625 5625 5624 5625 5625 5624 5622 5621 5621 5621 5622 5624 5623 5623 5623 5622 5619 5620 5621 5622
5616 5621 5624 5626 5627 5627 5627 5626 5626 5625 5625 5625 5625 5624 5623 5623 5622 5622 5620 5619 5618 5619 5619 5619 5618 5616 5615 5617 5614 5615 5615 5615 5615 5614 5612 5612 5613 5614
5611 5617 5620 5621 5622 5622 5622 5623 5622 5621 5620 5620 5619 5619 5618 5617 5616 5615 5614 5613 5613 5613 5613 5612 5611 5609 5607 5609 5611 5606 5606 5606 5605 5605 5604 5604 5604 5605
5610 5612 5614 5616 5616 5616 5616 5617 5617 5616 5615 5614 5613 5613 5612 5611 5610 5609 5608 5606 5606 5606 5606 5606 5604 5603 5601 5601 5601 5600 5597 5598 5596 5595 5595 5595 5595 5594
5607 5608 5609 5610 5611 5611 5611 5611 5611 5610 5609 5608 5607 5606 5606 5605 5604 5603 5602 5599 5597 5599 5598 5598 5597 5594 5594 5592 5591 5592 5591 5588 5588 5586 5586 5585 5586 5586
5602 5602 5604 5604 5604 5605 5605 5605 5605 5603 5602 5602 5601 5601 5600 5599 5598 5596 5595 5594 5593 5592 5591 5590 5588 5587 5586 5584 5584 5584 5583 5581 5578 5576 5575 5575 5576 5577
5594 5595 5596 5597 5598 5598 5598 5599 5597 5597 5596 5595 5594 5593 5593 5592 5591 5590 5588 5587 5587 5585 5584 5582 5581 5580 5579 5578 5577 5577 5575 5573 5572 5570 5568 5566 5565 5564